Other Surface Observations
Issued by NWS

Home | Current Version | Previous Version | Text Only | Print | Product List | Glossary On
Versions: 1 2 3 4 5 6 7 8 9 10 11 12 13 14 15 16 17 18 19 20 21 22 23 24 25 26 27 28 29 30 31 32 33 34 35 36 37 38 39 40 41 42 43 44 45 46 47 48 49 50
000
SXUS52 KTAE 301918
OSOTAE
OSOTAE
North Florida/South Alabama/Southwest Georgia Weather Roundup
National Weather Service Tallahassee Florida
300 PM EDT WED JUL 30 2014

Note: "fair" indicates few or no clouds below 12,000 feet with no
significant weather and/or obstructions to visibility.

!FLZ017-115-028-034-025-302000
...North Florida...

CITY           SKY/WX    TMP DP  RH WIND       PRES   REMARKS
TALLAHASSEE    PTSUNNY   91  63  38 N8        29.98F HX  92
APALACHICOLA   SUNNY     84  67  56 S9        29.99F
PERRY          MOSUNNY   86  59  39 NW5       29.98F
CROSS CITY       N/A     90  60  36 NW7       29.97F
HOMERVILLE     FAIR      90  63  40 NW7       29.98S HX  90
JACKSONVILLE   PTSUNNY   88  63  43 W8        29.94F
$$

!FLZ112-006-005-002-011-302000
...Florida Panhandle...

CITY           SKY/WX    TMP DP  RH WIND       PRES   REMARKS
MARIANNA       SUNNY     86  61  42 W8        29.99F
BONIFAY        FAIR      85  57  38 CALM      30.01F
PANAMA CITY NW FAIR      88  64  44 W7        29.98F
TYNDALL AFB    MOSUNNY   86  66  51 SW8       30.01F
TYND DRONE APT FAIR      85  66  53 SW7       29.99F
DE FUNIAK SPR  FAIR      85  59  41 NW7       30.01F
EGLIN AFB      MOSUNNY   86  63  46 S6        30.00F
DESTIN         SUNNY     85  64  49 S7        30.00F
HURLBURT       SUNNY     85  60  42 S10       29.99F
CRESTVIEW      SUNNY     85  57  38 NW7       30.02F
PENSACOLA      SUNNY     84  61  45 W10       30.01F
$$

!ALZ063-066-302000
...South Alabama...

CITY           SKY/WX    TMP DP  RH WIND       PRES   REMARKS
DOTHAN         SUNNY     84  58  40 N8        30.05F
OZARK CAIRNS   SUNNY     84  56  39 W9        30.01F
FT RUCKER HELI SUNNY     87  53  31 W10G20    30.00F
RUCKER HELI 3  FAIR      84  55  37 VRB7      30.03F
RUCKER HELI 2  FAIR      86  53  32 N9G18     30.00F
FLORALA APT    SUNNY     85  56  37 VRB5      30.03F
ANDALUSIA      SUNNY     88  52  29 CALM      30.02F
TROY           SUNNY     84  53  34 VRB7      30.03F
EUFALA         FAIR      85  57  38 CALM      30.00F
MOBILE         MOSUNNY   84  56  38 N5        30.04F
$$

!GAZ120>161-302000
...Southwest and South Central Georgia...

CITY           SKY/WX    TMP DP  RH WIND       PRES   REMARKS
THOMASVILLE    FAIR      88  57  35 N3        30.00F
BAINBRIDGE     SUNNY     88  61  40 W3        29.99F
MOODY AFB      MOSUNNY   89  72  57 VRB5      29.98F HX  96
VALDOSTA       MOSUNNY   93  56  28 CALM      29.98F HX  91
MOULTRIE       MOSUNNY   88  55  33 CALM      30.00S
BLAKELY        SUNNY     88  54  31 CALM      30.00F
ALBANY         SUNNY     87  55  33 W8        30.00F
TIFTON         PTSUNNY   86  53  32 NW7       29.98F
FITZGERALD     MOCLDY    88  52  28 CALM      30.01F
CORDELE        FAIR      88  56  33 SW5       30.00F
AMERICUS       FAIR      82  55  39 SW5       30.02F
$$

!GMZ750-755-770-775-302000
...Coastal and Buoy Obs...

STATION/POSITION TIME  TEMP    WIND        PRES    VSBY  WAVE
                       AIR SEA DIR/SP/G                  HT/PER
                 (UTC) (F)     (DEG/KT/KT) (MB)    (MI)  (FT/S)
KEATON BEACH     1900   85     270/  8/ 10 1015.4F
CEDAR KEY        1900   86     300/  5/  8 1015.5F
C TOWER          1900   82     230/  4/  5 1015.8F
APALACHICOLA BUO 1900   83 86   20/  4/  6 1015.9F         2/ 4
PANAMA CITY BUOY 1801   83 87  130/  2/  2 1016.1          2/ 4
MOBILE BUOY      1807   81 87   10/  4/  6 1016.9F
ORANGE BCH AL BU 1900   80 85   CALM  /  2 1016.8F         1/ 4
$$



USA.gov is the U.S. government's official web portal to all federal, state and local government web resources and services.